Weather History for State College, PA

Change the Weather History Date:

Sunday, January 13, 2013

  Actual Average Record
Temperature  
Mean Temperature 40 °F -  
Max Temperature 46 °F 30 °F 68 °F (1932)
Min Temperature 33 °F 15 °F -6 °F (1968)
Degree Days  
Heating Degree Days 26    
Moisture  
Dew Point 38 °F    
Average Humidity 98    
Maximum Humidity 100    
Minimum Humidity 93    
Precipitation  
Precipitation 0.00 in - - ()
Sea Level Pressure  
Sea Level Pressure 29.98 in    
Wind  
Wind Speed 1 mph (WNW)    
Max Wind Speed 7 mph    
Max Gust Speed -    
Visibility 1 miles    
Events Fog    
Averages and records for this station are not official NWS values.
T = Trace of Precipitation, MM = Missing Value Source: NWS Daily Summary

Daily Weather History Graph

Daily Weather History Graph

Search for Another Location

Airport:

Trip Planner

Search our weather history database for the weather conditions in past years. The results will help you decide how hot, cold, wet, or windy it might be!

Date:

Astronomy

Jan. 13, 2013 Rise Set
Actual Time 7:34 AM EST 5:06 PM EST
Civil Twilight 7:04 AM EST 5:36 PM EST
Nautical Twilight 6:30 AM EST 6:10 PM EST
Astronomical Twilight 5:57 AM EST 6:43 PM EST
Moon 8:30 AM EST (1/13) 7:43 PM EST (1/13)
Length of Visible Light 10h 32m
Length of Day
9h 32m
Waxing Crescent, 5% of the Moon is Illuminated
Jan 13
Waxing Crescent
Jan 18
First Quarter
Jan 26
Full
Feb 3
Last Quarter
Feb 10
New

Hourly Weather History & Observations

Time (EST) Temp. Windchill Dew Point Humidity Pressure Visibility Wind Dir Wind Speed Gust Speed Precip Events Conditions
12:15 AM 34.2 °F - 33.8 °F 99% 30.06 in 0.5 mi Calm Calm - N/A Fog Fog
12:35 AM 33.8 °F - 33.3 °F 98% 30.06 in 0.2 mi Calm Calm - N/A Fog Fog
12:55 AM 34.3 °F - 33.8 °F 98% 30.06 in 0.5 mi Calm Calm - N/A Fog Fog
1:15 AM 34.0 °F - 33.4 °F 98% 30.07 in 0.5 mi Calm Calm - N/A Fog Fog
1:35 AM 34.5 °F - 33.8 °F 97% 30.05 in 1.2 mi Calm Calm - N/A   Overcast
1:55 AM 35.1 °F - 34.3 °F 97% 30.06 in 3.0 mi Calm Calm - N/A   Overcast
2:15 AM 33.8 °F - 33.3 °F 98% 30.06 in 1.0 mi Calm Calm - N/A   Overcast
2:35 AM 34.0 °F - 33.4 °F 98% 30.05 in 0.8 mi Calm Calm - N/A   Overcast
2:55 AM 34.0 °F - 33.6 °F 99% 30.03 in 0.5 mi Calm Calm - N/A Fog Fog
3:15 AM 33.8 °F - 33.3 °F 98% 30.03 in 1.0 mi Calm Calm - N/A   Overcast
3:35 AM 33.1 °F - 32.5 °F 98% 30.03 in 0.5 mi Calm Calm - N/A Fog Fog
3:55 AM 33.1 °F - 32.5 °F 98% 30.02 in 0.2 mi Calm Calm - N/A Fog Fog
4:15 AM 33.8 °F 30.8 °F 33.1 °F 97% 30.01 in 0.2 mi North 3.5 mph - N/A Fog Fog
4:35 AM 33.8 °F - 33.1 °F 97% 30.00 in 0.2 mi Calm Calm - N/A Fog Fog
4:55 AM 33.4 °F - 32.9 °F 98% 29.99 in 0.2 mi Calm Calm - N/A Fog Fog
5:15 AM 33.8 °F - 33.1 °F 97% 29.98 in 0.5 mi Calm Calm - N/A Fog Fog
5:53 AM 33.8 °F - 33.8 °F 100% 29.97 in 1.0 mi Calm Calm - N/A   Overcast
6:53 AM 33.8 °F - 33.8 °F 100% 30.00 in 1.0 mi Calm Calm - N/A   Overcast
7:19 AM 33.8 °F - 33.8 °F 100% 30.01 in 0.5 mi Calm Calm - N/A   Overcast
7:53 AM 33.8 °F - 33.8 °F 100% 30.01 in 0.2 mi Calm Calm - N/A Fog Fog
8:53 AM 35.6 °F - 33.8 °F 93% 30.02 in 0.2 mi Calm Calm - N/A Fog Fog
9:53 AM 37.4 °F - 35.6 °F 93% 30.02 in 0.2 mi Calm Calm - N/A Fog Fog
10:53 AM 39.2 °F - 39.2 °F 100% 30.01 in 0.2 mi Calm Calm - N/A Fog Fog
12:25 PM 44.6 °F 43.1 °F 44.6 °F 100% 29.97 in 0.5 mi West 3.5 mph - N/A Fog Fog
12:53 PM 46.4 °F 43.5 °F 44.6 °F 93% 29.95 in 1.2 mi West 5.8 mph - N/A   Overcast
1:13 PM 46.4 °F 44.3 °F 44.6 °F 93% 29.94 in 2.5 mi WNW 4.6 mph - N/A   Overcast
1:36 PM 46.4 °F 44.3 °F 44.6 °F 93% 29.93 in 2.5 mi WNW 4.6 mph - N/A   Overcast
1:53 PM 46.4 °F 44.3 °F 46.4 °F 100% 29.93 in 4.0 mi WNW 4.6 mph - N/A   Overcast
2:53 PM 46.4 °F 42.9 °F 46.4 °F 100% 29.92 in 6.0 mi WNW 6.9 mph - N/A   Overcast
3:53 PM 46.4 °F - 46.4 °F 100% 29.93 in 7.0 mi Calm Calm - N/A Fog Overcast
4:53 PM 42.8 °F - 42.8 °F 100% 29.94 in 7.0 mi Calm Calm - N/A   Overcast
5:20 PM 44.6 °F - 42.8 °F 93% 29.94 in 2.0 mi Calm Calm - N/A   Overcast
5:53 PM 42.8 °F - 42.8 °F 100% 29.95 in 2.0 mi Calm Calm - N/A   Scattered Clouds
6:05 PM 42.8 °F - 42.8 °F 100% 29.94 in 0.5 mi Calm Calm - N/A Fog Fog
6:20 PM 42.8 °F - 42.8 °F 100% 29.94 in 0.2 mi Calm Calm - N/A Fog Fog
6:53 PM 42.8 °F 40.1 °F 41.0 °F 93% 29.94 in 0.2 mi NW 4.6 mph - N/A Fog Fog
7:53 PM 41.0 °F - 41.0 °F 100% 29.95 in 0.2 mi Calm Calm - N/A Fog Fog
8:53 PM 41.0 °F 39.0 °F 41.0 °F 100% 29.94 in 0.2 mi WNW 3.5 mph - N/A Fog Fog
9:55 PM 41.0 °F - 40.3 °F 97% 29.92 in 0.2 mi Calm Calm - N/A Fog Fog
10:15 PM 41.0 °F - 40.1 °F 97% 29.92 in 0.2 mi Calm Calm - N/A Fog Fog
10:35 PM 40.3 °F - 39.6 °F 97% 29.93 in 0.2 mi Calm Calm - N/A Fog Fog
10:55 PM 41.0 °F - 40.1 °F 97% 29.92 in 0.8 mi Calm Calm - N/A   Overcast
11:15 PM 41.4 °F - 40.6 °F 97% 29.93 in 1.0 mi Calm Calm - N/A   Overcast
11:35 PM 41.0 °F - 40.3 °F 97% 29.93 in 1.2 mi Calm Calm - N/A   Overcast
11:55 PM 40.8 °F - 40.1 °F 97% 29.94 in 0.5 mi Calm Calm - N/A Fog Fog